Wetbulb
43.50 44.47 44.54 44.18 44.22 45.44 44.17 44.57 42.42 45.58 45.78 49.88 51.86 52.15 53.47 55.09 56.23 56.37 56.96 60.41 61.90 61.69 61.32 60.52 59.67 59.47 59.66 60.91 60.38 59.96 58.82 58.76 59.04 58.91 58.16 57.78 57.50 57.58 57.08 53.79 50.70 52.77 48.26 44.24
38.09 42.73 42.91 40.91 43.43 43.89 44.78 45.96 45.80 46.10 46.18 52.49 52.68 53.54 54.06 54.67 55.15 55.58 56.40 58.83 61.43 62.32 61.36 60.23 59.67 58.54 58.44 59.94 59.70 59.80 59.72 58.96 57.78 57.09 57.83 57.52 56.75 56.77 54.03 50.75 52.42 46.91 47.39 47.98
32.84 39.17 39.73 36.17 41.90 43.84 45.14 45.92 45.90 43.70 49.12 51.90 52.26 52.75 54.34 55.21 55.83 55.91 56.81 57.73 60.13 62.02 62.02 62.10 61.07 59.61 59.99 59.57 60.28 59.63 59.13 58.59 57.53 56.63 55.23 55.62 54.99 53.60 52.89 52.36 49.41 46.54 47.08 44.51
30.97 33.93 24.80 40.15 45.81 46.76 45.72 47.64 49.74 50.49 52.01 53.45 53.88 55.34 56.08 56.26 56.15 56.86 57.71 58.38 59.99 62.13 62.64 62.62 60.63 59.01 59.50 59.18 58.66 57.23 58.39 57.75 57.49 56.76 55.50 55.75 55.37 54.75 54.07 52.62 51.22 49.17 47.61 44.55
29.13 29.48 33.97 36.75 41.16 43.35 43.78 44.35 49.75 49.49 51.07 52.67 54.17 54.82 55.01 57.29 58.24 58.31 59.29 59.78 61.36 62.85 62.71 60.99 60.19 57.39 59.10 57.78 58.06 58.48 57.81 57.61 58.00 57.57 56.74 56.27 55.49 55.14 54.89 53.18 52.03 48.37 49.19 47.62
31.49 26.25 24.27 36.97 41.79 44.35 44.65 38.04 48.31 50.14 52.13 52.26 53.45 49.35 53.19 57.12 58.68 58.82 59.15 59.75 59.01 59.51 59.14 57.18 57.92 57.83 56.75 58.57 58.63 57.93 57.86 58.32 58.72 57.84 56.88 56.14 56.16 55.51 55.19 53.82 51.56 50.09 48.98 48.43
32.71 30.27 33.47 40.59 42.51 44.42 35.84 41.58 50.81 51.18 52.98 53.51 52.16 54.92 57.84 58.62 57.95 58.18 57.92 57.27 57.35 57.31 54.39 55.28 55.76 56.42 56.26 57.19 56.40 57.59 57.64 57.14 56.70 56.40 55.89 56.17 55.68 54.93 53.75 52.40 51.12 50.78 49.60 49.29
33.24 29.03 26.83 43.64 42.91 38.05 43.31 48.15 50.27 53.01 54.34 55.19 56.48 56.98 57.84 57.69 57.00 55.72 54.83 54.57 55.15 54.41 53.72 53.43 56.21 57.25 56.51 56.05 56.28 55.55 55.49 54.44 54.70 54.93 53.72 53.76 53.71 52.96 52.13 51.47 50.58 50.11 49.38 48.38
34.81 36.02 44.37 46.71 45.94 49.31 49.46 49.25 49.93 49.61 51.39 53.29 53.88 53.92 56.47 55.79 55.24 52.83 52.14 52.80 53.15 52.61 52.01 53.67 55.37 55.73 55.33 53.32 54.80 54.10 54.39 53.78 53.28 52.87 52.67 52.32 51.93 51.73 50.58 50.73 50.07 49.29 47.99 47.46
36.13 41.18 43.11 46.01 48.65 49.20 50.56 48.82 51.62 52.57 52.44 54.61 54.26 54.15 54.57 55.67 53.32 52.39 52.05 50.86 52.26 51.80 51.89 51.02 52.33 53.19 53.87 54.14 54.03 53.52 53.00 52.71 52.59 52.12 50.32 50.66 50.90 51.67 50.85 50.83 49.93 48.79 47.81 46.97
37.62 40.86 42.09 45.20 46.73 48.15 49.04 49.90 51.18 51.38 53.00 53.90 54.25 53.85 55.02 53.41 52.24 52.09 52.12 52.97 53.26 52.43 51.76 51.01 52.50 52.34 52.98 52.81 53.37 52.07 51.90 51.41 51.10 50.97 50.42 51.25 51.18 51.76 50.90 52.12 50.26 50.37 49.71 49.10
34.40 41.41 43.31 44.54 46.86 47.79 49.43 50.88 52.00 51.28 53.14 55.15 55.36 53.20 51.17 50.43 51.17 50.79 51.83 53.54 52.29 51.61 49.12 49.28 48.75 48.17 48.73 50.21 50.18 49.63 48.70 49.12 48.23 50.02 50.54 50.66 50.64 49.89 39.97 37.65 36.34 36.63 36.67 39.73
39.79 44.46 45.33 46.50 48.08 48.27 47.00 48.65 51.96 52.73 52.90 51.07 52.83 51.85 50.89 50.04 49.78 47.65 52.11 51.34 50.62 48.54 47.63 47.04 46.08 44.92 45.86 46.87 47.71 47.74 47.36 46.91 47.78 46.40 49.07 49.09 48.50 47.78 46.98 45.37 35.03 34.08 34.52 35.23
45.60 45.33 43.47 45.35 46.55 50.07 50.98 51.16 52.79 52.95 51.51 49.99 51.07 52.18 51.09 49.74 49.26 50.99 49.98 50.01 49.30 47.96 46.70 46.06 45.21 43.60 44.65 45.79 45.73 45.60 44.88 33.80 46.53 47.12 47.47 46.88 47.18 46.72 46.46 45.57 43.57 42.74 37.49 35.45
43.55 44.68 45.25 46.47 48.56 49.81 52.99 52.93 51.42 51.09 51.61 49.40 50.60 49.63 49.29 47.39 47.93 46.72 47.23 47.00 46.50 45.71 45.33 45.50 43.90 42.42 43.53 44.29 44.01 43.64 44.47 44.37 44.68 45.33 45.00 41.34 43.77 44.61 44.56 43.87 41.36 40.37 39.42 36.40
42.87 43.94 44.48 44.94 46.29 47.58 51.44 50.94 52.36 50.81 47.91 47.22 48.78 47.94 48.29 47.88 46.25 46.10 45.53 45.24 44.41 42.99 43.39 41.85 40.39 40.64 42.04 42.94 43.69 44.06 42.66 32.57 35.75 43.21 43.06 42.90 43.20 42.69 42.40 39.81 37.97 37.77 37.52 37.25
40.82 41.11 44.12 45.87 48.07 50.13 48.60 48.17 51.32 51.95 49.50 49.39 48.88 48.31 46.36 44.86 43.84 42.52 43.30 43.25 41.53 42.06 41.94 39.80 39.59 40.00 40.10 41.39 42.84 43.32 43.51 41.64 32.62 42.31 41.66 41.00 41.21 41.14 40.89 39.93 37.25 36.28 35.48 34.63
48.40 48.75 48.64 48.67 49.61 48.33 48.68 48.16 48.20 47.81 48.81 48.08 46.02 44.38 42.06 42.08 40.94 41.00 40.54 40.06 39.13 38.67 39.13 37.88 36.14 33.46 34.68 38.64 40.74 41.31 41.58 40.85 40.63 40.38 40.40 39.36 40.07 40.04 39.54 38.51 37.81 36.38 33.88 32.45
49.84 51.26 49.98 49.23 49.66 47.83 45.67 44.74 45.19 45.18 45.11 42.27 41.26 39.75 39.31 40.68 41.02 39.60 39.75 35.98 34.50 37.36 34.94 35.25 30.33 35.38 36.19 32.79 38.10 41.16 40.96 40.37 40.09 39.55 39.11 36.29 39.07 38.70 38.10 37.65 36.10 34.13 32.80 32.14
49.37 50.93 49.86 48.96 46.91 45.39 42.98 42.40 42.64 41.67 41.49 38.57 36.44 35.59 35.73 34.86 35.05 34.86 37.34 39.33 40.59 41.83 37.56 35.04 35.49 37.02 36.18 33.54 32.78 40.78 40.44 39.80 38.77 37.66 38.14 38.22 36.78 34.46 35.36 32.97 33.02 32.26 32.68 32.31
46.38 48.03 46.38 45.45 43.32 42.22 41.95 41.99 40.21 38.49 37.82 37.22 36.99 36.12 35.05 34.50 34.86 35.05 36.39 37.64 34.82 35.35 37.00 33.47 39.00 38.81 39.13 36.68 38.78 39.80 39.06 38.07 38.00 37.83 35.87 33.41 33.52 33.45 32.70 32.26 31.96 32.03 32.09 32.29
44.98 45.46 44.02 42.75 40.95 39.81 40.95 42.30 39.84 37.02 36.66 36.86 34.32 34.14 34.32 34.65 34.27 34.13 33.40 39.50 37.24 32.31 36.78 38.73 39.84 34.39 36.70 31.60 39.56 38.74 38.24 37.58 37.23 36.75 33.91 33.08 32.72 31.72 31.90 32.21 31.63 31.44 31.28 31.86
42.31 42.25 41.32 40.49 40.00 39.86 40.46 39.06 36.83 37.03 35.54 35.07 35.00 35.75 37.53 37.17 38.81 39.03 37.21 38.20 37.86 33.85 38.79 39.22 31.49 29.91 30.52 38.62 38.43 37.78 37.25 36.01 34.99 33.65 32.51 32.10 31.95 32.10 31.99 31.44 32.16 32.57 31.60 31.80
41.88 40.41 39.51 39.91 40.20 39.50 36.32 36.70 36.80 36.39 35.08 35.25 34.32 34.86 38.37 38.62 39.22 40.15 39.19 34.66 31.92 31.29 38.38 33.88 31.15 29.42 32.24 37.09 36.28 35.59 34.86 33.60 32.64 32.64 31.98 30.75 31.78 31.95 31.48 31.71 31.39 31.32 30.80 30.40
39.32 39.45 40.41 41.07 40.39 38.57 37.21 37.08 37.21 38.24 38.69 37.99 38.61 40.28 42.20 42.09 41.78 40.26 39.44 36.47 30.69 35.13 35.09 27.95 28.68 29.94 34.32 33.05 33.60 33.23 33.23 33.05 32.28 31.80 31.46 31.95 31.90 31.24 31.22 31.32 30.42 30.16 29.63 29.44
41.12 41.54 41.49 41.37 39.34 38.97 38.94 39.97 38.41 39.28 39.36 38.67 39.24 40.79 40.95 40.54 39.62 39.35 38.12 34.96 35.38 33.77 34.94 31.22 31.42 31.96 32.51 33.88 32.87 33.05 33.01 32.61 32.35 31.82 32.02 31.77 31.68 30.87 30.56 29.84 29.56 29.08 28.95 28.80
41.37 38.82 41.10 40.94 41.84 42.26 43.20 42.02 42.35 41.37 41.82 42.29 40.28 40.51 39.93 39.85 38.51 37.54 34.94 35.69 35.09 33.75 31.06 31.24 31.60 32.04 31.70 31.95 32.13 32.18 32.13 32.25 31.65 31.87 31.36 31.26 30.69 30.02 29.39 29.05 28.69 28.73 28.47 27.90
MSLP
1012.30 1011.14 1010.93 1011.06 1010.17 1009.06 1008.32 1007.46 1006.90 1004.47 1004.21 1002.19 1003.13 1003.10 1002.57 1002.16 1002.07 1001.85 1001.86 1002.67 1003.37 1004.17 1004.87 1005.94 1006.94 1007.62 1008.46 1009.21 1010.16 1010.94 1011.82 1012.40 1012.71 1013.59 1014.57 1015.24 1015.96 1016.68 1017.50 1018.61 1019.31 1019.78 1020.51 1021.39
1013.25 1011.73 1011.65 1011.32 1009.34 1007.77 1007.50 1006.60 1006.08 1004.69 1003.14 1000.67 1002.87 1002.46 1001.88 1001.44 1001.35 1001.07 1000.96 1001.56 1002.18 1003.09 1004.11 1004.87 1005.77 1006.45 1007.49 1008.12 1009.22 1010.15 1010.64 1011.15 1012.11 1012.69 1013.49 1014.28 1015.08 1015.73 1016.71 1017.41 1017.95 1018.87 1019.66 1020.30
1014.18 1013.13 1012.30 1010.54 1006.94 1006.83 1005.73 1005.10 1004.99 1003.25 1001.31 1001.93 1001.80 1001.50 1001.00 1000.33 1000.60 1000.30 1000.18 1000.30 1001.23 1002.07 1002.79 1003.74 1004.95 1005.83 1006.49 1007.35 1008.63 1009.42 1009.92 1010.82 1011.41 1012.14 1012.67 1013.29 1014.41 1015.47 1016.27 1016.68 1017.66 1018.10 1018.55 1019.38
1015.21 1014.51 1012.02 1006.50 1006.94 1005.49 1004.10 1003.80 1003.39 1002.23 1001.33 1000.99 1000.71 1000.68 1000.29 999.61 999.73 999.63 999.63 1000.05 1000.71 1001.51 1002.29 1003.20 1004.86 1005.56 1006.39 1006.75 1007.99 1008.79 1009.13 1010.12 1010.65 1011.38 1012.16 1012.92 1013.77 1014.27 1015.11 1015.97 1016.42 1017.06 1017.78 1018.54
1015.51 1012.28 1009.30 1007.49 1005.20 1005.08 1003.59 1002.80 1002.11 1001.58 1000.91 1000.42 1000.13 1000.33 998.39 999.21 999.65 999.43 999.26 999.73 1000.17 1001.05 1002.24 1002.86 1003.97 1005.39 1005.79 1006.78 1007.52 1008.02 1008.34 1009.08 1009.59 1010.45 1011.22 1011.84 1012.56 1013.24 1013.94 1014.78 1015.48 1016.43 1017.02 1017.80
1014.18 1012.32 1008.60 1005.77 1004.75 1004.40 1004.91 1001.16 1001.44 1001.80 1000.13 999.89 999.93 999.43 997.48 998.20 998.71 999.36 999.93 1000.11 1000.89 1001.30 1002.31 1003.49 1004.43 1005.07 1005.90 1006.11 1006.75 1007.17 1007.73 1008.44 1009.07 1009.77 1010.43 1011.14 1011.75 1012.47 1013.16 1013.91 1014.77 1015.57 1016.08 1016.63
1013.02 1011.74 1007.59 1006.11 1005.23 1004.72 1003.73 999.79 1000.43 999.95 999.12 998.92 998.94 998.42 997.74 998.46 998.88 999.59 1000.34 1000.54 1001.43 1001.66 1002.61 1003.80 1004.24 1005.26 1005.67 1006.10 1006.70 1007.21 1007.87 1008.44 1009.01 1009.70 1010.30 1010.88 1011.65 1012.29 1012.92 1013.58 1014.10 1014.58 1014.97 1015.38
1011.78 1010.40 1006.60 1005.60 1004.88 1003.93 1002.03 1002.04 1000.74 999.50 999.10 998.41 998.22 998.17 998.15 998.63 999.19 999.88 1000.57 1001.38 1002.33 1002.59 1003.44 1004.56 1005.34 1005.49 1006.09 1006.40 1007.23 1007.94 1008.24 1008.71 1009.23 1009.85 1010.50 1010.94 1011.58 1012.17 1012.60 1013.08 1013.51 1013.90 1014.35 1014.70
1009.86 1007.06 1004.99 1003.87 1003.32 1002.63 1002.39 1001.48 1000.28 1000.76 999.50 998.78 998.57 998.23 998.86 999.13 999.99 1000.46 1001.00 1001.78 1003.20 1003.25 1004.20 1005.00 1005.82 1006.12 1005.89 1007.07 1007.33 1007.77 1008.07 1008.75 1009.50 1010.08 1010.59 1010.97 1011.54 1011.89 1012.35 1012.85 1013.07 1013.34 1013.73 1014.03
1008.71 1005.06 1004.77 1004.22 1003.09 1002.35 1002.24 1001.18 1000.10 999.41 998.88 998.54 997.81 997.83 998.27 999.20 999.89 1000.41 1001.32 1002.06 1003.83 1004.47 1004.72 1005.94 1006.45 1006.62 1006.54 1007.05 1007.40 1007.75 1008.15 1008.64 1009.38 1009.96 1010.50 1011.07 1011.47 1011.62 1011.96 1012.33 1012.47 1012.77 1013.10 1013.36
1005.78 1003.82 1004.81 1002.52 1002.27 1001.49 1000.61 1000.17 999.55 998.79 998.39 997.97 997.72 997.75 998.86 999.19 999.83 1000.64 1001.16 1002.24 1003.89 1004.42 1004.98 1005.94 1006.54 1006.82 1007.14 1007.20 1007.54 1007.96 1008.34 1008.98 1009.44 1009.98 1010.57 1010.93 1010.98 1011.13 1011.64 1011.77 1012.08 1012.48 1012.67 1012.89
1003.28 1003.40 1002.96 1001.33 1000.76 1000.60 999.40 998.40 997.85 997.58 997.14 996.58 996.78 997.94 999.36 999.99 1000.34 1000.89 1001.97 1002.50 1003.70 1004.51 1005.25 1006.25 1006.85 1007.30 1007.84 1007.96 1007.93 1008.14 1008.55 1008.96 1009.68 1010.18 1010.56 1010.69 1010.88 1011.20 1011.63 1012.02 1012.36 1012.65 1012.80 1013.07
1002.45 1002.55 1002.04 1000.61 1000.27 1000.02 999.22 998.48 997.91 996.88 996.63 997.16 998.23 999.05 999.14 1000.15 1001.43 1001.61 1002.45 1003.00 1003.92 1004.90 1005.90 1006.69 1007.35 1008.04 1008.61 1008.82 1008.72 1008.86 1009.34 1009.95 1010.29 1010.53 1010.68 1010.83 1011.03 1011.22 1011.32 1011.74 1012.33 1012.58 1012.81 1013.04
1000.57 1000.92 999.79 999.10 998.04 998.03 997.64 996.94 996.53 996.23 997.21 997.38 997.87 999.18 999.32 1000.01 1001.50 1002.26 1002.36 1003.49 1004.39 1005.17 1006.21 1007.30 1008.22 1009.09 1009.66 1009.54 1009.55 1009.92 1010.37 1010.84 1010.80 1011.12 1011.30 1011.35 1011.27 1011.45 1011.58 1011.77 1012.11 1012.22 1012.39 1012.77
998.47 999.23 998.02 997.68 997.93 997.03 996.14 995.96 996.21 996.76 996.92 997.01 997.78 998.50 999.39 1001.01 1001.95 1002.48 1003.54 1004.41 1005.11 1006.21 1007.15 1007.99 1008.84 1009.62 1010.13 1010.36 1010.38 1010.62 1010.90 1011.22 1011.50 1011.57 1011.66 1011.77 1011.74 1011.77 1011.86 1012.02 1012.40 1012.60 1012.78 1012.86
996.97 997.39 997.39 997.24 996.32 995.98 995.49 995.71 995.69 996.19 996.80 997.29 998.70 999.87 1000.56 1001.52 1002.70 1003.62 1004.74 1005.35 1005.79 1007.22 1008.00 1009.10 1009.98 1010.62 1010.73 1010.68 1010.81 1011.07 1011.41 1011.70 1011.88 1011.84 1011.84 1011.93 1012.11 1012.18 1012.23 1012.69 1012.89 1013.02 1013.12 1013.32
994.92 994.75 995.04 994.59 994.45 994.33 994.81 995.49 995.70 995.72 996.31 997.54 998.79 1000.06 1001.92 1002.67 1003.74 1004.91 1005.60 1006.64 1007.34 1007.89 1008.95 1010.14 1010.80 1011.07 1011.40 1011.58 1011.46 1011.38 1011.57 1012.00 1012.33 1012.34 1012.56 1012.59 1012.62 1012.77 1012.69 1012.85 1013.10 1013.09 1013.39 1013.92
992.39 992.31 992.83 992.92 993.34 994.05 994.72 995.28 995.77 996.43 997.25 998.69 1000.18 1001.36 1001.98 1003.01 1004.42 1005.83 1006.60 1007.60 1008.37 1009.33 1010.14 1010.71 1011.25 1012.12 1012.39 1012.10 1011.86 1011.88 1012.02 1012.45 1012.79 1012.83 1012.88 1012.99 1013.13 1013.22 1013.31 1013.26 1013.30 1013.32 1013.74 1014.30
990.85 990.78 991.09 991.92 993.28 994.44 995.22 996.03 997.04 997.70 999.11 1000.20 1001.75 1002.70 1003.67 1004.60 1005.43 1006.48 1007.30 1008.14 1009.00 1009.63 1011.06 1011.74 1012.49 1012.49 1012.52 1012.70 1012.27 1012.29 1012.44 1012.79 1013.01 1013.17 1013.33 1013.58 1013.55 1013.62 1013.65 1013.56 1013.71 1014.05 1014.29 1014.48
990.27 990.09 990.45 991.79 993.28 994.35 995.65 997.05 997.93 998.93 999.93 1001.34 1003.67 1004.58 1005.57 1005.90 1005.93 1007.24 1007.87 1008.67 1009.37 1009.80 1011.08 1011.89 1012.12 1012.32 1012.71 1013.18 1013.12 1012.87 1012.98 1013.19 1013.45 1013.85 1013.98 1013.91 1014.05 1014.11 1014.07 1014.47 1014.47 1014.46 1014.81 1014.87
989.95 990.64 991.59 992.75 994.33 995.40 995.76 997.39 998.29 1000.10 1001.20 1002.72 1004.24 1005.40 1006.03 1006.32 1006.94 1007.60 1008.29 1008.94 1010.41 1010.93 1011.30 1011.98 1011.83 1012.29 1012.74 1013.20 1013.11 1013.27 1013.58 1013.78 1013.99 1014.14 1014.39 1014.59 1014.38 1014.46 1014.52 1014.83 1015.05 1015.13 1015.25 1015.34
991.21 992.03 993.18 994.01 995.11 996.42 997.64 998.25 999.27 1000.82 1002.14 1003.59 1004.97 1006.03 1006.68 1007.38 1007.95 1008.27 1008.74 1008.77 1010.25 1011.35 1011.53 1011.93 1012.27 1012.80 1013.00 1013.54 1013.42 1013.83 1013.96 1014.05 1014.17 1014.33 1014.59 1014.58 1015.02 1014.80 1015.18 1015.20 1015.41 1015.64 1015.78 1015.81
993.36 993.95 994.43 995.53 995.89 997.49 998.92 999.45 1000.37 1001.44 1003.15 1004.46 1005.57 1006.48 1006.63 1007.12 1007.55 1008.01 1008.84 1009.78 1010.37 1011.55 1011.69 1012.19 1013.10 1013.43 1013.82 1013.90 1014.02 1014.33 1014.33 1014.51 1014.52 1014.72 1014.94 1015.11 1015.48 1015.52 1015.51 1015.72 1015.90 1016.08 1016.21 1016.27
994.54 995.30 995.69 996.46 997.11 998.08 999.52 1000.86 1001.68 1002.91 1003.97 1005.01 1005.59 1006.08 1006.57 1007.29 1008.10 1008.61 1008.83 1010.11 1011.15 1012.03 1012.04 1012.94 1013.41 1013.91 1014.24 1014.38 1014.45 1014.74 1014.60 1014.59 1015.00 1015.30 1015.52 1015.55 1015.69 1015.77 1015.98 1016.28 1016.39 1016.62 1016.83 1016.92
995.68 996.41 997.12 997.71 998.71 999.89 1000.81 1001.70 1002.44 1003.34 1004.17 1005.18 1006.18 1006.90 1007.18 1007.58 1007.69 1008.85 1009.61 1010.70 1011.68 1011.72 1012.55 1013.54 1014.11 1014.55 1014.54 1014.60 1014.79 1014.68 1014.63 1014.73 1015.06 1015.62 1015.87 1015.92 1016.04 1016.21 1016.51 1016.67 1016.84 1017.09 1017.28 1017.38
996.59 997.36 998.06 998.83 999.48 1000.33 1001.07 1001.78 1002.77 1003.86 1004.65 1005.83 1006.79 1007.46 1007.89 1008.16 1008.73 1009.39 1010.20 1011.00 1011.81 1012.61 1013.36 1014.17 1014.50 1014.57 1014.78 1014.80 1014.87 1014.85 1015.43 1015.42 1015.26 1015.74 1016.06 1016.27 1016.46 1016.67 1016.90 1017.10 1017.28 1017.43 1017.63 1017.86
997.75 998.25 998.97 999.95 1000.49 1001.09 1001.87 1002.65 1003.45 1004.52 1005.29 1006.17 1007.06 1008.01 1008.29 1008.69 1009.38 1010.33 1011.37 1012.06 1012.76 1013.41 1013.95 1014.32 1014.58 1014.78 1014.92 1015.05 1015.22 1015.58 1015.75 1015.51 1015.76 1016.10 1016.28 1016.55 1016.84 1017.09 1017.33 1017.52 1017.65 1017.88 1018.07 1018.21
Wind_Speed
24 26 22 19 24 28 28 28 26 30 30 35 25 26 26 24 21 22 16 14 17 18 17 17 18 17 17 19 18 17 20 21 21 19 18 18 18 18 17 18 17 18 15 15
23 28 23 22 30 35 30 33 32 34 37 35 29 27 25 24 23 22 19 18 19 19 17 18 20 19 17 18 18 19 20 21 15 15 17 17 15 15 16 17 17 15 17 16
24 21 18 19 37 30 31 33 27 32 33 30 27 26 24 23 21 22 21 19 17 19 19 16 14 15 17 16 16 17 18 17 17 15 15 14 13 15 17 16 15 15 17 16
17 14 18 25 20 25 30 26 26 28 28 27 25 24 23 26 23 22 22 16 14 15 16 15 11 11 11 12 14 16 16 16 15 15 16 15 16 18 16 16 18 17 16 17
16 16 25 25 28 24 26 28 29 27 30 30 27 22 33 20 19 23 21 14 14 13 10 11 14 8 9 14 15 15 16 14 14 15 16 15 16 16 15 15 15 15 14 16
13 22 14 15 22 28 27 31 32 29 28 25 19 17 23 15 18 16 13 10 11 13 11 8 8 12 13 13 14 14 13 12 12 12 13 13 13 13 11 11 12 11 14 16
18 18 18 24 26 23 20 21 19 26 28 29 25 20 23 9 6 10 9 8 8 10 10 9 7 8 10 10 10 8 8 8 8 9 9 9 9 8 9 10 10 12 14 14
18 23 28 22 23 26 20 25 27 24 19 13 10 15 14 12 11 12 11 10 7 12 13 11 6 9 11 10 8 8 8 8 8 8 6 6 8 8 9 10 11 11 12 11
12 14 17 18 25 24 25 26 29 29 35 30 28 24 12 11 12 14 14 12 7 11 11 11 6 8 11 10 10 10 10 10 8 7 7 7 8 8 7 9 8 8 8 9
24 31 30 30 32 33 32 32 32 30 31 30 29 26 22 13 16 16 14 14 9 10 14 10 7 6 11 10 10 10 11 10 8 7 6 5 5 5 6 7 8 8 9 10
28 32 30 32 30 32 34 33 34 36 34 32 30 27 15 16 15 10 13 16 14 10 13 12 11 11 10 9 9 10 10 8 7 5 5 5 4 4 6 7 6 7 8 7
26 30 26 29 31 32 30 27 30 30 31 17 14 12 12 10 11 11 13 16 14 15 15 14 13 13 10 8 8 9 8 6 5 3 2 0 2 4 7 8 5 8 8 5
35 30 31 34 32 35 29 30 35 12 12 12 15 12 13 12 9 12 16 16 16 16 15 13 13 12 9 8 8 9 7 5 4 2 2 2 3 4 6 3 3 5 9 10
33 27 35 35 25 23 26 24 14 6 7 8 11 12 15 15 15 18 17 16 17 17 15 13 12 11 8 8 9 8 7 3 4 3 3 3 4 5 5 6 7 5 5 8
35 29 33 29 28 27 25 17 15 11 10 9 10 11 16 16 16 15 16 16 16 15 14 13 12 10 8 6 7 7 5 4 3 3 3 3 4 4 4 5 5 5 4 2
30 31 31 32 32 30 23 12 16 13 10 14 16 15 15 16 17 17 16 15 17 12 12 10 10 7 6 6 6 5 6 5 3 4 4 4 4 4 4 4 4 3 3 2
31 29 29 27 27 25 16 14 14 16 15 19 19 21 19 19 17 15 15 13 13 13 11 9 9 7 6 4 4 4 4 5 3 3 4 4 3 3 3 3 2 2 3 3
26 25 23 22 17 10 11 10 9 11 17 19 18 19 20 19 17 15 15 14 13 11 9 8 7 4 1 4 5 5 4 4 3 3 2 3 3 3 3 3 3 4 4 4
24 24 22 19 10 10 14 15 16 20 20 17 15 14 14 15 16 14 12 11 10 10 4 5 4 4 6 4 3 4 4 3 3 3 3 2 3 3 4 4 5 5 5 4
17 8 8 15 18 20 18 17 20 18 19 20 13 13 11 9 12 11 10 11 6 7 10 8 6 6 5 5 2 4 4 4 3 4 2 3 4 4 5 6 5 5 4 5
9 18 21 21 18 18 21 20 23 18 17 17 15 12 10 10 9 11 10 8 6 6 8 7 4 5 4 5 3 4 4 4 3 3 3 3 4 5 5 5 5 5 4 4
13 17 19 21 21 20 18 20 20 17 14 14 12 12 12 11 7 8 6 7 8 7 5 4 4 4 5 3 4 4 4 4 4 4 4 5 4 5 4 4 4 4 4 4
12 14 18 18 21 18 16 15 15 18 16 15 14 12 10 8 7 8 7 7 8 6 5 4 7 7 5 2 4 4 5 5 5 5 4 5 4 3 4 4 4 4 4 4
13 14 15 17 17 18 18 11 13 12 12 10 9 6 11 9 5 5 9 9 11 6 5 6 6 6 5 5 5 4 5 6 5 4 4 4 4 4 4 4 4 3 3 3
14 15 16 16 16 12 15 13 14 13 14 13 11 8 8 5 4 7 8 8 9 7 6 6 6 5 4 4 5 5 5 5 5 4 4 4 4 4 4 3 3 3 3 3
14 11 10 12 12 11 10 11 11 9 10 9 7 6 6 6 9 8 8 8 7 7 6 5 5 4 4 5 5 5 4 4 5 4 4 4 4 4 3 4 3 3 3 3
12 12 13 11 10 10 9 11 11 11 9 8 9 6 7 8 8 8 8 6 6 5 5 5 5 4 4 4 5 4 4 5 4 4 5 5 4 4 3 3 3 3 3 3
Wind_Direction
264 268 268 276 271 269 260 260 262 269 268 270 280 288 291 292 287 287 281 238 221 211 203 202 202 201 199 203 199 197 203 208 211 211 214 213 214 211 205 202 201 202 193 197
272 268 280 270 266 260 257 262 264 268 269 269 283 276 278 278 278 279 272 245 229 214 211 203 203 194 193 197 200 200 206 211 206 200 207 215 211 208 194 201 205 191 200 198
262 273 282 267 246 259 257 254 259 262 265 279 274 273 270 270 271 273 269 258 233 219 213 209 203 194 201 191 201 202 207 213 209 205 200 204 199 197 207 208 192 199 198 196
262 281 254 245 261 260 263 263 260 263 267 273 266 273 278 275 278 267 272 267 232 215 207 199 193 191 181 177 200 201 207 213 208 206 209 208 210 218 214 208 213 207 204 205
230 242 259 272 258 252 257 262 261 264 267 268 269 274 264 263 263 262 261 242 216 204 200 182 187 177 175 189 206 205 208 215 206 209 212 209 215 216 214 215 217 216 214 212
231 235 250 246 265 258 262 263 264 267 271 269 270 261 267 270 265 251 243 212 188 168 156 152 172 164 179 199 202 208 202 203 204 203 205 210 213 214 213 216 216 215 219 212
228 246 261 261 272 283 262 259 254 251 255 249 252 255 264 289 235 221 210 183 167 130 128 121 117 166 184 183 198 198 181 180 183 187 196 204 202 205 207 208 214 219 222 222
244 247 260 249 264 255 268 278 279 275 284 277 277 286 262 242 209 173 157 137 140 112 90 88 141 157 157 148 137 152 145 150 157 168 166 178 184 190 199 206 216 222 224 230
257 250 256 271 292 285 282 262 260 264 276 278 283 282 262 232 186 158 134 114 110 97 100 115 163 155 127 131 135 135 132 133 138 140 155 168 184 190 197 212 217 223 228 235
266 255 262 265 268 269 276 284 286 259 253 258 266 268 276 208 169 156 141 119 119 153 138 139 129 100 121 121 123 122 121 121 130 145 147 169 193 196 203 210 217 225 230 237
272 273 275 267 267 270 269 262 262 264 271 263 260 255 223 190 163 161 140 146 163 158 135 127 126 113 107 108 119 109 101 103 102 105 173 177 200 210 224 237 235 237 238 248
259 260 261 270 275 280 281 268 263 260 261 272 251 198 178 182 153 146 169 160 148 134 123 121 112 99 94 88 94 101 98 90 76 97 97 18 278 266 222 250 284 265 270 274
258 261 263 267 273 275 273 273 273 271 260 208 219 177 157 134 160 150 171 142 134 128 121 115 101 89 79 75 78 73 81 78 92 59 22 314 287 281 290 230 242 276 260 240
256 255 254 250 260 265 265 266 275 238 175 181 161 173 151 149 147 163 138 131 130 123 114 112 105 91 75 74 81 80 90 60 57 34 6 336 321 311 306 307 310 309 232 255
247 243 254 269 273 280 265 244 196 228 216 150 145 135 139 152 141 121 122 126 117 114 117 114 108 95 82 79 83 78 75 56 34 28 13 345 326 321 313 311 302 306 321 300
252 251 254 250 255 255 258 221 206 184 153 136 150 154 145 123 123 120 124 126 125 121 111 100 98 100 91 86 93 95 92 63 30 27 20 5 350 337 330 338 317 325 323 355
247 246 236 243 247 247 200 194 203 189 161 161 155 135 129 121 115 116 110 106 102 104 104 113 114 96 88 84 98 89 80 71 27 43 32 17 5 353 355 10 359 22 39 32
243 247 239 241 249 184 191 185 168 151 149 133 133 129 126 123 127 128 120 115 101 97 101 98 86 102 75 95 80 80 81 81 73 73 60 47 20 32 32 39 45 59 58 61
249 250 229 218 186 148 128 116 120 117 116 108 107 106 111 123 128 125 124 110 110 116 119 115 132 142 100 70 68 97 102 109 96 74 70 110 69 53 55 54 61 55 61 76
239 221 132 137 138 134 121 119 117 110 109 98 98 98 113 115 106 114 118 106 82 103 140 138 147 134 114 106 291 101 99 97 101 93 64 86 83 72 68 52 62 67 65 71
153 138 132 129 126 125 124 128 117 118 116 120 133 139 132 114 120 129 127 120 120 122 124 149 136 130 131 132 168 111 119 122 127 107 87 85 80 71 75 71 65 63 68 76
122 127 125 124 120 114 122 124 118 118 111 105 104 118 124 128 118 76 40 112 138 151 135 136 148 95 115 196 120 128 143 136 122 106 97 87 78 86 79 72 72 75 77 79
108 116 114 118 116 114 124 114 113 120 126 131 136 146 134 134 141 131 124 132 126 140 143 130 108 110 114 152 136 145 137 120 103 91 96 94 98 88 82 90 86 82 84 89
104 96 93 99 104 104 98 100 110 114 117 118 100 103 131 130 103 70 86 100 102 133 101 116 121 131 181 160 150 152 128 107 95 99 102 103 98 100 101 104 100 89 89 89
100 104 108 112 112 109 119 120 108 109 109 111 118 110 105 94 115 122 121 115 124 126 107 107 129 156 157 147 149 126 114 121 125 122 117 111 108 102 105 99 104 106 104 96
119 118 118 116 123 127 125 124 116 120 118 120 118 113 100 100 111 114 106 110 117 115 123 144 162 158 152 139 127 115 129 122 116 115 123 116 109 107 108 111 118 112 105 93
103 108 110 110 114 116 114 119 122 130 135 131 121 125 107 99 90 105 109 115 120 130 133 139 136 134 125 123 125 127 122 103 104 122 116 113 113 113 116 113 105 98 97 95